Voltar ao catálogo

FENGYUN 1C DEB

AtivoPO
NORAD 32123·DEBRIS·🇨🇳 China

Lançado May 10, 1999 de Taiyuan Satellite Launch Center

Loading…

Próximas Passagens (próximas 24 horas)

TLE

AtualizadoSource: Space-Track

Época: Sep 13, 2026, 12:05 UTC

1 32123U 99025CRR 26256.50390933  .00000871  00000-0  15526-3 0  9997
2 32123  98.9500  92.0152 0158804 171.0200 219.8879 14.62203990753892

Acompanhe FENGYUN 1C DEB em tempo real com AllMySat

Download on the App Store